SCP
0 0 0 0 0 0 0 0 0 0 0 0 0 0 0 0 0 0 0 0 0 0 0 0 0 0 0 0 0 0 0 0 0 0 0 0 0 0 0 0 0 0 0 0 0 0 0
0 0 0 0 0 0 0 0 0 0 0 0 0 0 0 0 0 0 0 0 0 0 0 0 0 0 0 0 0 0 -0 0 0 0 0 0 0 0 0 0 0 0 0 0 0 0 0
0 0 0 0 0 0 0 0 0 0 0 0 0 0 0 0 0 0 0 0 0 0 0 0 0 0 0 0 0 0 0 0 0 0 0 0 0 0 0 0 0 0 0 0 0 0 0
0 0 0 0 0 0 0 0 0 0 0 0 0 0 0 0 0 0 0 0 0 0 0 0 0 0 0 0 0 0 0 0 0 0 0 0 0 0 0 0 0 0 0 0 0 0 0
0 0 0 0 0 0 0 0 0 0 0 0 0 0 0 0 0 0 0 0 0 0 0 0 0 0 0 0 0 0 0 0 0 0 0 0 0 0 0 0 0 0 0 0 0 0 0
0 0 0 0 0 0 0 0 0 0 0 0 0 0 0 0 0 0 0 0 0 0 0 0 0 0 0 0 0 0 0 0 0 0 0 0 0 0 0 0 0 0 0 0 0 0 0
0 0 0 0 -0 -0 -0 0 0 0 0 0 0 0 0 0 0 0 0 0 0 0 0 0 0 0 0 0 0 0 0 0 0 0 0 0 0 0 0 0 0 0 0 0 0 0 0
0 0 0 -0 -0 -0 -0 -0 0 0 0 0 0 0 0 0 0 0 0 0 0 0 0 0 0 0 0 0 0 0 0 0 0 0 0 0 0 0 0 0 0 0 0 0 0 0 0
0 0 0 0 -0 -0 -0 0 0 0 0 0 0 0 0 0 0 0 0 0 0 0 0 0 0 0 0 0 0 0 0 0 0 0 0 0 0 0 0 0 0 0 0 0 0 0 0
0 0 0 0 -0 0 0 0 0 0 0 0 0 0 0 0 0 0 0 0 0 0 0 0 0 0 0 0 0 0 0 0 0 0 0 0 0 0 0 0 0 0 0 0 0 0 0
0 0 0 0 0 0 0 0 0 0 0 0 0 0 0 0 0 0 0 -0 0 0 0 0 0 -0 0 0 0 0 0 0 0 0 0 0 -0 -0 0 0 0 0 0 0 0 0 0
0 0 0 0 0 0 0 0 0 0 0 0 0 0 0 0 0 0 -0 -0 0 0 0 0 0 0 0 0 0 0 0 0 0 0 0 0 0 -0 -0 0 0 0 0 0 0 0 0
0 0 0 0 0 0 0 0 0 0 0 0 0 0 0 0 0 -0 -0 0 0 0 0 0 0 0 0 0 0 0 0 0 0 0 0 0 0 0 -0 0 0 0 0 0 0 0 0
0 0 0 0 0 0 0 0 0 0 0 0 0 0 0 0 -0 -0 0 0 0 0 0 0 0 0 0 0 0 0 0 0 0 0 0 0 0 0 0 -0 0 0 0 0 0 0 0
0 0 0 0 0 0 0 0 0 0 0 0 0 0 0 0 0 0 0 0 0 0 0 0 -0 0 0 0 0 0 0 0 0 0 0 0 0 0 0 0 0 0 0 0 0 0 0
0 0 0 0 0 0 0 0 0 0 0 0 0 0 0 0 0 0 0 0 0 0 0 0 0 -0 0 0 0 0 0 0 0 0 0 0 0 0 0 0 0 0 0 0 0 0 0
0 0 0 0 0 0 0 0 0 0 0 0 0 0 0 0 0 0 0 0 0 0 0 0 0 0 0 0 0 0 0 0 0 0 0 0 0 0 0 0 0 0 0 0 0 0 0
0 0 0 0 0 0 0 0 0 0 0 0 0 0 0 0 0 0 0 0 0 0 0 0 0 -0 -0 0 0 0 0 0 0 0 0 -0 0 0 0 0 0 0 0 0 0 0 0
0 0 0 0 0 0 0 0 0 0 0 0 0 0 0 0 0 0 0 0 0 0 0 0 0 -0 0 0 0 0 0 0 0 0 -0 -0 0 0 0 0 0 0 0 0 0 0 0
0 0 0 0 0 0 0 0 0 0 0 0 0 0 0 0 0 0 0 0 0 0 0 0 0 -0 -0 -0 -0 0 0 0 0 0 0 0 0 0 0 0 0 0 0 0 0 0 0
0 0 0 0 0 0 0 0 0 0 0 0 0 0 0 0 0 0 0 0 0 0 0 0 0 -0 0 -0 -0 -0 0 0 0 0 0 0 0 0 0 0 0 0 0 0 0 0 0
0 0 0 0 0 0 0 0 0 0 0 0 0 0 0 0 0 0 0 0 0 0 0 0 0 -0 -0 -0 -0 0 0 0 0 0 0 0 0 0 0 0 0 0 0 0 0 0 0
0 0 0 0 0 0 0 0 0 0 0 0 0 0 0 0 0 0 0 -0 0 0 0 0 0 0 0 -0 -0 0 0 0 0 0 0 0 0 0 0 0 0 0 0 0 0 0 0
0 0 0 0 -0 -0 0 0 0 0 0 0 0 0 0 0 0 0 0 0 0 0 0 0 0 0 0 -0 0 0 0 0 0 0 0 0 0 0 0 0 0 0 0 0 0 0 0
0 0 0 -0 -0 -0 0 0 0 0 0 0 0 0 0 0 -0 -0 -0 0 0 0 0 0 0 0 0 0 0 0 0 0 0 0 0 0 0 0 0 0 0 0 0 0 0 0 0
0 0 0 -0 -0 -0 0 0 -0 0 0 0 0 0 0 -0 0 -0 -0 0 0 0 0 0 0 0 0 0 0 0 -0 0 0 0 0 0 0 0 0 0 0 0 0 0 0 0 0
0 0 -0 -0 -0 -0 -0 0 -0 -0 0 0 0 0 0 -0 -0 0 -0 -0 -0 0 0 0 0 0 0 0 0 0 -0 0 0 0 0 0 0 0 0 0 0 0 0 0 0 0 0
0 0 0 0 -0 -0 -0 0 -0 -0 -0 0 0 0 0 -0 -0 -0 0 -0 0 0 -0 0 0 0 0 0 0 0 0 0 0 0 0 0 0 0 0 0 0 0 0 0 0 0 0
0 0 0 -0 -0 -0 -0 0 -0 -0 -0 -0 -0 0 -0 -0 -0 -0 0 0 0 0 0 0 0 0 0 0 0 -0 0 0 0 -0 0 0 0 0 0 0 0 0 0 0 0 0 0
Wind_Speed_500mb
18 14 19 18 17 9 9 8 10 10 11 16 20 20 10 18 21 28 30 22 20 23 24 22 23 28 24 21 32 26 24 14 33 35 39 33 30 27 15 25 26 20 16 12 12 6 4
20 19 16 9 9 9 10 12 12 14 15 16 17 14 15 19 21 25 25 17 19 25 24 22 19 20 23 23 24 34 36 24 26 37 41 34 16 30 14 20 38 16 34 30 22 16 7
20 17 10 9 15 20 26 28 27 25 25 21 18 16 17 20 19 21 20 19 22 23 24 20 21 18 24 45 16 20 29 26 29 30 44 38 34 22 18 14 41 32 17 28 20 23 7
15 11 15 23 31 32 30 29 27 24 22 24 23 17 17 21 18 18 21 25 24 22 24 19 18 19 23 17 37 35 24 24 29 28 30 40 33 34 18 12 13 15 9 27 24 20 14
9 16 29 31 36 38 35 31 31 29 27 26 25 21 17 21 17 18 22 26 20 22 20 16 18 14 20 10 27 34 44 32 23 34 32 24 22 19 21 9 19 16 23 23 15 36 11
17 26 31 35 35 34 30 29 30 29 23 23 23 22 16 20 17 16 22 23 18 23 10 11 18 15 18 15 19 27 35 38 27 24 21 17 6 10 13 19 26 42 32 29 16 8 11
23 28 31 28 26 29 28 28 27 23 24 21 20 17 16 18 14 14 19 20 14 7 10 16 10 20 32 27 24 28 32 31 28 24 15 12 10 22 21 41 13 37 34 26 9 1 9
26 26 24 24 23 23 20 19 22 20 20 20 17 15 14 14 11 11 11 9 14 16 19 26 34 35 35 24 17 21 21 18 15 17 12 5 17 24 23 17 28 13 43 35 3 5 6
22 21 19 19 18 12 7 6 15 17 18 18 15 14 10 6 5 7 8 10 18 18 10 20 17 19 17 17 10 19 19 19 7 10 20 17 7 13 26 22 36 30 28 43 13 10 6
19 15 14 14 13 6 5 11 15 17 17 16 16 11 6 4 1 8 8 14 14 11 6 11 2 5 11 10 11 10 10 14 9 7 10 13 20 16 17 35 16 21 22 28 25 22 18
16 11 10 6 4 3 7 13 18 19 17 18 15 14 11 5 2 4 10 13 3 4 9 9 3 10 10 10 18 3 13 22 5 8 7 5 19 12 5 18 11 5 29 29 20 12 13
15 11 9 5 6 9 13 16 17 22 23 21 20 16 12 3 5 8 2 3 2 11 9 11 12 12 6 9 7 15 7 14 6 6 3 2 8 18 19 15 12 12 31 19 10 8 7
16 14 12 10 13 16 17 19 24 24 25 23 20 14 6 7 1 4 6 3 9 9 9 17 8 14 17 8 5 5 9 3 4 5 1 3 5 3 26 15 8 7 9 7 5 5 5
20 19 17 18 19 20 24 24 21 25 24 23 17 11 5 8 7 5 0 9 9 7 7 7 7 15 6 9 5 4 11 6 3 3 4 5 1 8 7 10 11 14 5 3 9 6 7
24 23 22 24 26 29 25 25 26 24 24 21 16 10 7 7 3 1 4 8 12 8 6 9 11 6 10 9 5 7 2 4 6 4 5 7 6 3 9 6 4 13 4 4 8 5 7
27 28 27 29 31 28 30 29 26 27 28 22 16 10 8 5 2 1 6 6 1 2 3 3 4 3 6 9 8 7 5 6 5 12 15 7 3 3 4 3 9 4 20 5 3 5 4
33 33 32 34 31 34 33 29 30 32 27 20 15 4 1 2 3 2 3 2 5 2 4 5 4 7 6 8 1 5 5 8 7 6 20 4 5 2 5 5 1 5 5 6 8 3 7
38 38 37 36 36 37 34 33 34 32 25 17 9 5 4 1 9 3 1 1 6 4 3 4 3 7 5 9 6 5 7 5 20 6 5 7 4 5 4 4 7 3 2 5 7 7 2
44 42 41 40 42 39 36 36 36 32 25 15 6 5 4 1 4 2 3 6 6 5 6 2 4 3 2 2 6 7 8 6 15 12 7 5 2 6 5 5 4 3 6 3 6 6 6
48 47 46 48 45 42 40 38 36 33 24 14 6 3 2 4 4 5 3 4 5 9 6 5 4 5 3 6 9 7 5 9 13 8 21 4 3 5 6 3 5 8 11 9 7 6 5
53 50 52 54 49 45 43 41 38 34 26 14 5 3 5 2 4 5 3 1 4 5 4 2 5 4 5 6 4 7 4 4 9 13 12 2 3 2 5 4 7 10 9 11 6 7 10
58 56 57 56 51 48 46 43 39 34 27 17 8 8 7 4 5 7 5 6 10 8 2 2 3 9 5 7 3 5 7 7 3 5 8 3 4 3 8 11 9 8 13 11 17 10 10
65 63 62 58 53 52 49 46 42 36 31 11 13 8 4 5 2 7 7 8 4 9 4 4 1 6 5 3 7 12 11 15 10 8 1 3 5 3 6 8 7 10 14 19 15 10 21
68 68 65 61 55 54 52 48 42 37 34 17 14 11 7 4 5 8 3 4 3 5 3 2 4 4 3 5 8 9 11 15 14 9 4 2 6 1 4 5 1 12 2 10 23 5 15
72 72 69 64 59 56 55 51 45 39 34 23 14 11 9 4 13 4 8 5 1 4 4 3 8 6 6 6 3 8 4 3 3 4 3 6 1 2 5 5 9 7 5 10 13 11 20
76 75 72 66 63 58 57 55 49 42 35 27 16 15 8 6 9 6 5 6 5 3 9 5 6 5 3 3 5 4 4 7 1 10 2 2 5 1 4 5 10 10 4 2 8 8 1
81 77 74 70 66 61 58 58 53 44 35 28 19 18 18 6 9 13 7 8 7 2 2 3 2 1 2 3 2 2 4 5 3 4 5 5 4 5 3 4 14 12 7 6 11 9 3
86 78 77 72 68 64 60 60 56 46 37 29 22 19 27 8 9 12 14 11 10 8 6 6 4 3 6 4 4 4 3 6 2 6 7 7 9 7 4 5 13 16 8 12 7 10 6
90 80 77 73 70 66 63 62 58 48 38 32 25 25 26 15 6 11 17 20 16 14 13 10 1 2 1 5 2 4 2 1 3 4 1 6 11 7 14 11 6 27 3 12 13 10 5
Wind_Direction_500mb
315 271 278 286 304 296 288 318 332 327 321 312 313 328 315 316 317 324 317 292 294 313 297 285 298 301 285 250 249 258 288 265 225 225 234 225 219 201 214 194 215 226 252 235 139 118 91
290 299 303 263 280 290 293 297 303 312 317 322 321 317 311 315 317 329 329 303 297 308 305 292 288 288 278 271 254 256 269 262 239 215 229 219 221 214 250 228 196 213 231 243 187 199 183
288 282 275 278 284 289 292 291 290 287 287 292 302 308 322 316 313 322 327 311 304 310 311 293 289 292 270 245 258 269 254 250 239 230 219 220 219 205 212 198 212 242 222 234 213 193 183
280 255 275 291 291 283 279 279 281 282 283 276 279 295 306 317 303 305 320 317 308 305 311 292 282 285 262 271 250 255 270 250 233 216 220 222 226 230 206 158 146 205 197 212 233 207 197
260 285 289 282 283 284 280 274 273 270 269 269 265 271 300 312 293 298 314 317 313 309 305 285 277 251 270 292 249 251 260 260 252 234 240 234 276 229 166 157 176 193 207 204 189 190 167
285 287 285 288 289 288 283 275 269 265 262 260 261 259 278 302 290 299 314 317 316 308 299 272 260 291 270 268 287 248 237 245 238 226 217 231 242 259 174 181 208 197 203 195 168 191 153
286 288 292 291 291 288 281 270 251 254 246 251 254 250 253 297 292 306 322 346 357 1 309 234 281 250 301 304 290 266 236 234 251 224 194 185 211 241 250 198 199 209 199 180 155 265 124
284 292 292 297 298 291 287 268 238 232 228 233 240 232 243 291 294 310 335 29 333 314 302 281 261 259 276 292 295 271 210 212 223 251 174 155 244 298 300 255 216 216 199 201 72 61 96
280 289 295 301 294 287 282 192 191 204 206 212 222 209 247 270 326 339 338 305 298 306 281 303 253 260 274 275 280 297 220 219 277 248 198 197 210 329 354 296 196 202 200 191 161 125 101
275 279 290 298 292 275 212 170 169 178 180 190 187 187 178 178 48 343 311 317 309 319 338 284 251 304 258 270 273 311 248 228 229 261 211 218 199 231 330 301 235 171 177 170 155 167 212
256 260 272 277 263 239 173 162 157 157 163 160 162 156 155 145 35 344 315 307 302 342 25 294 337 299 279 274 315 306 229 219 275 285 214 211 165 183 298 284 342 335 142 147 146 120 135
247 228 233 204 165 159 151 152 152 148 149 153 149 146 144 128 21 332 315 148 280 42 277 321 313 333 291 250 283 313 281 214 233 299 323 95 145 163 177 249 320 325 109 68 77 99 162
226 219 196 184 163 158 156 153 149 150 150 151 147 143 164 161 183 14 118 310 35 115 326 312 331 335 322 276 278 65 347 228 170 83 297 106 12 124 149 158 191 312 55 124 116 160 148
214 205 195 180 169 162 154 154 159 152 146 145 144 134 102 56 60 108 139 47 73 234 242 316 317 313 281 330 301 93 359 234 259 94 136 121 353 201 175 193 161 161 116 86 109 143 128
208 198 190 176 167 163 162 159 155 153 146 144 139 126 83 73 68 124 291 57 204 213 225 328 328 331 311 328 344 51 2 269 231 157 214 134 212 334 57 328 169 156 174 70 72 16 94
204 194 186 177 170 172 162 159 157 153 147 142 127 78 60 64 35 214 82 235 170 274 285 264 298 136 314 298 18 24 342 282 277 174 93 338 165 32 291 290 16 187 139 99 353 137 171
202 192 186 182 180 170 165 163 160 157 152 141 126 163 38 311 29 116 132 9 296 169 332 287 292 305 321 330 152 345 270 300 16 251 145 135 263 200 189 37 173 91 131 103 133 112 154
201 193 188 188 182 173 171 168 166 165 158 154 153 81 149 48 58 51 191 277 302 279 6 275 257 250 170 310 316 261 264 258 350 40 213 155 308 137 63 64 356 309 110 195 146 200 319
203 197 192 191 184 179 176 171 170 170 169 160 120 104 144 98 114 135 290 285 261 279 217 251 267 282 38 286 296 234 290 28 9 9 13 140 315 98 96 28 19 15 330 313 112 81 186
202 200 194 188 187 184 179 173 173 174 170 166 144 47 104 159 153 157 287 288 287 225 272 167 268 303 238 249 201 291 300 8 10 1 345 55 297 76 156 174 139 171 218 221 130 105 163
201 200 192 186 189 188 182 177 178 179 182 178 150 139 171 201 273 181 255 252 272 284 231 246 293 224 327 306 245 224 273 269 11 359 340 91 19 246 292 34 172 193 218 226 148 164 171
200 198 192 188 191 191 185 181 182 184 187 191 160 150 153 192 229 185 212 261 204 277 207 201 209 321 255 237 275 322 316 25 43 334 354 5 46 75 351 345 1 334 183 205 217 257 289
200 198 194 191 192 192 190 185 185 188 186 184 191 189 156 138 222 91 226 223 256 160 233 261 322 320 291 354 269 274 276 290 279 321 264 285 120 89 246 331 20 350 229 190 207 205 215
200 200 196 193 193 194 193 189 187 188 187 192 168 153 169 243 167 206 219 213 265 222 239 200 216 267 273 311 291 279 273 276 269 272 346 231 133 72 208 16 324 238 189 189 201 182 212
198 201 198 196 195 196 194 191 188 185 190 201 195 185 178 187 224 273 228 197 235 282 239 231 217 261 287 322 330 17 360 308 280 322 292 300 137 125 148 202 287 325 235 153 165 262 209
197 200 199 197 197 197 195 193 192 193 201 213 220 213 196 146 244 192 164 178 181 231 341 240 262 219 301 315 54 129 182 216 311 333 211 243 124 255 102 126 191 244 223 95 102 297 335
196 200 200 199 198 199 197 195 195 198 207 218 231 221 207 237 213 196 180 177 174 174 155 270 244 168 236 44 23 151 259 184 142 203 188 178 147 188 192 199 288 244 190 140 93 233 161
196 199 201 199 198 199 197 197 198 201 211 222 233 211 205 225 228 222 213 188 172 190 147 171 59 306 36 45 124 253 145 222 94 228 196 187 152 191 86 93 280 162 116 169 188 141 142
196 196 200 199 199 199 197 197 199 204 213 225 220 208 211 228 220 225 226 225 218 200 187 179 255 158 12 72 342 63 269 72 190 252 149 215 192 191 181 208 258 202 231 200 172 165 213
Wind_Speed_850mb
18 14 19 18 17 9 9 8 10 10 11 16 20 20 10 18 21 28 30 22 20 23 24 22 23 28 24 21 32 26 24 14 33 35 39 33 30 27 15 25 26 20 16 12 12 6 4
20 19 16 9 9 9 10 12 12 14 15 16 17 14 15 19 21 25 25 17 19 25 24 22 19 20 23 23 24 34 36 24 26 37 41 34 16 30 14 20 38 16 34 30 22 16 7
20 17 10 9 15 20 26 28 27 25 25 21 18 16 17 20 19 21 20 19 22 23 24 20 21 18 24 45 16 20 29 26 29 30 44 38 34 22 18 14 41 32 17 28 20 23 7
15 11 15 23 31 32 30 29 27 24 22 24 23 17 17 21 18 18 21 25 24 22 24 19 18 19 23 17 37 35 24 24 29 28 30 40 33 34 18 12 13 15 9 27 24 20 14
9 16 29 31 36 38 35 31 31 29 27 26 25 21 17 21 17 18 22 26 20 22 20 16 18 14 20 10 27 34 44 32 23 34 32 24 22 19 21 9 19 16 23 23 15 36 11
17 26 31 35 35 34 30 29 30 29 23 23 23 22 16 20 17 16 22 23 18 23 10 11 18 15 18 15 19 27 35 38 27 24 21 17 6 10 13 19 26 42 32 29 16 8 11
23 28 31 28 26 29 28 28 27 23 24 21 20 17 16 18 14 14 19 20 14 7 10 16 10 20 32 27 24 28 32 31 28 24 15 12 10 22 21 41 13 37 34 26 9 1 9
26 26 24 24 23 23 20 19 22 20 20 20 17 15 14 14 11 11 11 9 14 16 19 26 34 35 35 24 17 21 21 18 15 17 12 5 17 24 23 17 28 13 43 35 3 5 6
22 21 19 19 18 12 7 6 15 17 18 18 15 14 10 6 5 7 8 10 18 18 10 20 17 19 17 17 10 19 19 19 7 10 20 17 7 13 26 22 36 30 28 43 13 10 6
19 15 14 14 13 6 5 11 15 17 17 16 16 11 6 4 1 8 8 14 14 11 6 11 2 5 11 10 11 10 10 14 9 7 10 13 20 16 17 35 16 21 22 28 25 22 18
16 11 10 6 4 3 7 13 18 19 17 18 15 14 11 5 2 4 10 13 3 4 9 9 3 10 10 10 18 3 13 22 5 8 7 5 19 12 5 18 11 5 29 29 20 12 13
15 11 9 5 6 9 13 16 17 22 23 21 20 16 12 3 5 8 2 3 2 11 9 11 12 12 6 9 7 15 7 14 6 6 3 2 8 18 19 15 12 12 31 19 10 8 7
16 14 12 10 13 16 17 19 24 24 25 23 20 14 6 7 1 4 6 3 9 9 9 17 8 14 17 8 5 5 9 3 4 5 1 3 5 3 26 15 8 7 9 7 5 5 5
20 19 17 18 19 20 24 24 21 25 24 23 17 11 5 8 7 5 0 9 9 7 7 7 7 15 6 9 5 4 11 6 3 3 4 5 1 8 7 10 11 14 5 3 9 6 7
24 23 22 24 26 29 25 25 26 24 24 21 16 10 7 7 3 1 4 8 12 8 6 9 11 6 10 9 5 7 2 4 6 4 5 7 6 3 9 6 4 13 4 4 8 5 7
27 28 27 29 31 28 30 29 26 27 28 22 16 10 8 5 2 1 6 6 1 2 3 3 4 3 6 9 8 7 5 6 5 12 15 7 3 3 4 3 9 4 20 5 3 5 4
33 33 32 34 31 34 33 29 30 32 27 20 15 4 1 2 3 2 3 2 5 2 4 5 4 7 6 8 1 5 5 8 7 6 20 4 5 2 5 5 1 5 5 6 8 3 7
38 38 37 36 36 37 34 33 34 32 25 17 9 5 4 1 9 3 1 1 6 4 3 4 3 7 5 9 6 5 7 5 20 6 5 7 4 5 4 4 7 3 2 5 7 7 2
44 42 41 40 42 39 36 36 36 32 25 15 6 5 4 1 4 2 3 6 6 5 6 2 4 3 2 2 6 7 8 6 15 12 7 5 2 6 5 5 4 3 6 3 6 6 6
48 47 46 48 45 42 40 38 36 33 24 14 6 3 2 4 4 5 3 4 5 9 6 5 4 5 3 6 9 7 5 9 13 8 21 4 3 5 6 3 5 8 11 9 7 6 5
53 50 52 54 49 45 43 41 38 34 26 14 5 3 5 2 4 5 3 1 4 5 4 2 5 4 5 6 4 7 4 4 9 13 12 2 3 2 5 4 7 10 9 11 6 7 10
58 56 57 56 51 48 46 43 39 34 27 17 8 8 7 4 5 7 5 6 10 8 2 2 3 9 5 7 3 5 7 7 3 5 8 3 4 3 8 11 9 8 13 11 17 10 10
65 63 62 58 53 52 49 46 42 36 31 11 13 8 4 5 2 7 7 8 4 9 4 4 1 6 5 3 7 12 11 15 10 8 1 3 5 3 6 8 7 10 14 19 15 10 21
68 68 65 61 55 54 52 48 42 37 34 17 14 11 7 4 5 8 3 4 3 5 3 2 4 4 3 5 8 9 11 15 14 9 4 2 6 1 4 5 1 12 2 10 23 5 15
72 72 69 64 59 56 55 51 45 39 34 23 14 11 9 4 13 4 8 5 1 4 4 3 8 6 6 6 3 8 4 3 3 4 3 6 1 2 5 5 9 7 5 10 13 11 20
76 75 72 66 63 58 57 55 49 42 35 27 16 15 8 6 9 6 5 6 5 3 9 5 6 5 3 3 5 4 4 7 1 10 2 2 5 1 4 5 10 10 4 2 8 8 1
81 77 74 70 66 61 58 58 53 44 35 28 19 18 18 6 9 13 7 8 7 2 2 3 2 1 2 3 2 2 4 5 3 4 5 5 4 5 3 4 14 12 7 6 11 9 3
86 78 77 72 68 64 60 60 56 46 37 29 22 19 27 8 9 12 14 11 10 8 6 6 4 3 6 4 4 4 3 6 2 6 7 7 9 7 4 5 13 16 8 12 7 10 6
90 80 77 73 70 66 63 62 58 48 38 32 25 25 26 15 6 11 17 20 16 14 13 10 1 2 1 5 2 4 2 1 3 4 1 6 11 7 14 11 6 27 3 12 13 10 5
Wind_Direction_850mb
315 271 278 286 304 296 288 318 332 327 321 312 313 328 315 316 317 324 317 292 294 313 297 285 298 301 285 250 249 258 288 265 225 225 234 225 219 201 214 194 215 226 252 235 139 118 91
290 299 303 263 280 290 293 297 303 312 317 322 321 317 311 315 317 329 329 303 297 308 305 292 288 288 278 271 254 256 269 262 239 215 229 219 221 214 250 228 196 213 231 243 187 199 183
288 282 275 278 284 289 292 291 290 287 287 292 302 308 322 316 313 322 327 311 304 310 311 293 289 292 270 245 258 269 254 250 239 230 219 220 219 205 212 198 212 242 222 234 213 193 183
280 255 275 291 291 283 279 279 281 282 283 276 279 295 306 317 303 305 320 317 308 305 311 292 282 285 262 271 250 255 270 250 233 216 220 222 226 230 206 158 146 205 197 212 233 207 197
260 285 289 282 283 284 280 274 273 270 269 269 265 271 300 312 293 298 314 317 313 309 305 285 277 251 270 292 249 251 260 260 252 234 240 234 276 229 166 157 176 193 207 204 189 190 167
285 287 285 288 289 288 283 275 269 265 262 260 261 259 278 302 290 299 314 317 316 308 299 272 260 291 270 268 287 248 237 245 238 226 217 231 242 259 174 181 208 197 203 195 168 191 153
286 288 292 291 291 288 281 270 251 254 246 251 254 250 253 297 292 306 322 346 357 1 309 234 281 250 301 304 290 266 236 234 251 224 194 185 211 241 250 198 199 209 199 180 155 265 124
284 292 292 297 298 291 287 268 238 232 228 233 240 232 243 291 294 310 335 29 333 314 302 281 261 259 276 292 295 271 210 212 223 251 174 155 244 298 300 255 216 216 199 201 72 61 96
280 289 295 301 294 287 282 192 191 204 206 212 222 209 247 270 326 339 338 305 298 306 281 303 253 260 274 275 280 297 220 219 277 248 198 197 210 329 354 296 196 202 200 191 161 125 101
275 279 290 298 292 275 212 170 169 178 180 190 187 187 178 178 48 343 311 317 309 319 338 284 251 304 258 270 273 311 248 228 229 261 211 218 199 231 330 301 235 171 177 170 155 167 212
256 260 272 277 263 239 173 162 157 157 163 160 162 156 155 145 35 344 315 307 302 342 25 294 337 299 279 274 315 306 229 219 275 285 214 211 165 183 298 284 342 335 142 147 146 120 135
247 228 233 204 165 159 151 152 152 148 149 153 149 146 144 128 21 332 315 148 280 42 277 321 313 333 291 250 283 313 281 214 233 299 323 95 145 163 177 249 320 325 109 68 77 99 162
226 219 196 184 163 158 156 153 149 150 150 151 147 143 164 161 183 14 118 310 35 115 326 312 331 335 322 276 278 65 347 228 170 83 297 106 12 124 149 158 191 312 55 124 116 160 148
214 205 195 180 169 162 154 154 159 152 146 145 144 134 102 56 60 108 139 47 73 234 242 316 317 313 281 330 301 93 359 234 259 94 136 121 353 201 175 193 161 161 116 86 109 143 128
208 198 190 176 167 163 162 159 155 153 146 144 139 126 83 73 68 124 291 57 204 213 225 328 328 331 311 328 344 51 2 269 231 157 214 134 212 334 57 328 169 156 174 70 72 16 94
204 194 186 177 170 172 162 159 157 153 147 142 127 78 60 64 35 214 82 235 170 274 285 264 298 136 314 298 18 24 342 282 277 174 93 338 165 32 291 290 16 187 139 99 353 137 171
202 192 186 182 180 170 165 163 160 157 152 141 126 163 38 311 29 116 132 9 296 169 332 287 292 305 321 330 152 345 270 300 16 251 145 135 263 200 189 37 173 91 131 103 133 112 154
201 193 188 188 182 173 171 168 166 165 158 154 153 81 149 48 58 51 191 277 302 279 6 275 257 250 170 310 316 261 264 258 350 40 213 155 308 137 63 64 356 309 110 195 146 200 319
203 197 192 191 184 179 176 171 170 170 169 160 120 104 144 98 114 135 290 285 261 279 217 251 267 282 38 286 296 234 290 28 9 9 13 140 315 98 96 28 19 15 330 313 112 81 186
202 200 194 188 187 184 179 173 173 174 170 166 144 47 104 159 153 157 287 288 287 225 272 167 268 303 238 249 201 291 300 8 10 1 345 55 297 76 156 174 139 171 218 221 130 105 163
201 200 192 186 189 188 182 177 178 179 182 178 150 139 171 201 273 181 255 252 272 284 231 246 293 224 327 306 245 224 273 269 11 359 340 91 19 246 292 34 172 193 218 226 148 164 171
200 198 192 188 191 191 185 181 182 184 187 191 160 150 153 192 229 185 212 261 204 277 207 201 209 321 255 237 275 322 316 25 43 334 354 5 46 75 351 345 1 334 183 205 217 257 289
200 198 194 191 192 192 190 185 185 188 186 184 191 189 156 138 222 91 226 223 256 160 233 261 322 320 291 354 269 274 276 290 279 321 264 285 120 89 246 331 20 350 229 190 207 205 215
200 200 196 193 193 194 193 189 187 188 187 192 168 153 169 243 167 206 219 213 265 222 239 200 216 267 273 311 291 279 273 276 269 272 346 231 133 72 208 16 324 238 189 189 201 182 212
198 201 198 196 195 196 194 191 188 185 190 201 195 185 178 187 224 273 228 197 235 282 239 231 217 261 287 322 330 17 360 308 280 322 292 300 137 125 148 202 287 325 235 153 165 262 209
197 200 199 197 197 197 195 193 192 193 201 213 220 213 196 146 244 192 164 178 181 231 341 240 262 219 301 315 54 129 182 216 311 333 211 243 124 255 102 126 191 244 223 95 102 297 335
196 200 200 199 198 199 197 195 195 198 207 218 231 221 207 237 213 196 180 177 174 174 155 270 244 168 236 44 23 151 259 184 142 203 188 178 147 188 192 199 288 244 190 140 93 233 161
196 199 201 199 198 199 197 197 198 201 211 222 233 211 205 225 228 222 213 188 172 190 147 171 59 306 36 45 124 253 145 222 94 228 196 187 152 191 86 93 280 162 116 169 188 141 142
196 196 200 199 199 199 197 197 199 204 213 225 220 208 211 228 220 225 226 225 218 200 187 179 255 158 12 72 342 63 269 72 190 252 149 215 192 191 181 208 258 202 231 200 172 165 213